Location: Unspecified
(0.0000°N, 0.0000°E)
Time: 00:06:16
(UTC+02:00)

Palapa 6 Rocket - Visible Passes

Search period start: 24 April 2014 00:00
Search period end: 04 May 2014 00:00
Orbit: 486 x 1238 km, 22.7° (Epoch: 23 April)

Date Brightness Start Highest point End Pass type
(mag) Time Alt. Az. Time Alt. Az. Time Alt. Az.
24 Apr 6.6 04:42:56 13° NNE 04:42:56 13° NNE 04:44:08 10° NNE visible
24 Apr 6.5 06:28:22 10° NNW 06:29:32 10° N 06:30:39 10° N visible
24 Apr 5.7 21:05:49 10° S 21:07:40 11° SSE 21:08:18 11° SSE visible
25 Apr 6.8 04:31:57 12° NNE 04:31:57 12° NNE 04:32:32 10° NNE visible
25 Apr 6.5 06:16:54 10° NNW 06:18:19 11° N 06:19:42 10° N visible
25 Apr 5.6 20:54:19 10° S 20:56:25 12° SSE 20:57:45 11° SE visible
26 Apr 6.6 06:05:19 10° NNW 06:07:05 11° N 06:08:48 10° N visible
26 Apr 5.5 20:42:49 10° S 20:45:09 13° SSE 20:47:16 11° SE visible
26 Apr 6.1 22:28:53 10° SW 22:29:23 13° SW 22:29:23 13° SW visible
27 Apr 6.6 05:53:41 10° NNW 05:55:51 11° N 05:57:57 10° NNE visible
27 Apr 5.3 20:31:20 10° S 20:33:53 14° SSE 20:36:40 10° SE visible
27 Apr 5.7 22:17:34 10° SW 22:18:59 18° SW 22:18:59 18° SW visible
28 Apr 6.6 05:42:00 10° NNW 05:44:35 12° N 05:47:07 10° NNE visible
28 Apr 6.5 07:31:31 10° NNW 07:35:38 16° N 07:39:26 10° NE visible
28 Apr 5.1 20:19:51 10° S 20:22:36 15° SSE 20:25:37 10° ESE visible
28 Apr 5.1 22:06:18 10° SW 22:08:39 27° SW 22:08:39 27° SW visible
29 Apr 6.6 05:30:17 10° NNW 05:33:18 12° N 05:36:15 10° NNE visible
29 Apr 6.4 07:19:29 10° NNW 07:24:20 18° NNE 07:28:47 10° NE visible
29 Apr 4.3 21:55:03 10° SW 21:58:25 42° SW 21:58:25 42° SW visible
30 Apr 6.6 05:19:20 11° NNW 05:22:00 13° N 05:25:22 10° NNE visible
30 Apr 6.3 07:07:30 10° NNW 07:12:59 21° NNE 07:18:01 10° ENE visible
30 Apr 3.5 21:43:50 10° WSW 21:48:14 68° SSW 21:48:14 68° SSW visible
01 May 6.6 05:08:33 13° N 05:10:40 14° N 05:14:27 10° NE visible
01 May 6.2 06:55:33 10° NW 07:01:35 23° NNE 07:07:08 10° ENE visible
01 May 3.2 21:32:39 10° WSW 21:37:21 88° SSE 21:38:08 66° ENE visible
02 May 6.5 04:57:53 14° N 04:59:18 15° N 05:03:30 10° NE visible
02 May 6.1 06:43:38 10° NW 06:50:09 27° NNE 06:56:09 10° ENE visible
02 May 3.3 21:21:30 10° WSW 21:26:00 77° NNW 21:28:03 37° NE visible
03 May 6.5 04:47:19 16° N 04:47:55 16° NNE 04:52:30 10° NE visible
03 May 5.9 06:31:45 10° NW 06:38:39 30° NNE 06:45:05 10° ENE visible
03 May 3.5 21:10:23 10° WSW 21:14:40 61° NNW 21:18:00 21° NE visible
03 May 6.4 23:00:05 10° WNW 23:00:09 10° WNW 23:00:09 10° WNW visible
